This demonstration page uses our WeatherBlox Daily Observations layout. Learn more.

Left ArrowRight Arrow

Hourly Observations for February 12, 2020

Temp ( °F °C ) Dew Point ( °F °C ) Humidity (%) Winds ( mph kmh ) Pressure ( in mb ) Visibility ( mi km ) Precip ( " mm )
12:59 am 00:59 Cloudy 50 10 48 8.9 93 93 NNE 9 15 30.05 1018 7 11 0.07 1.78
1:11 am 01:11 Cloudy 51 10.6 48 8.9 89 89 N 10 17 30.08 1019 8 13 0.00 0.00
1:59 am 01:59 Cloudy 51 10.6 48 8.9 89 89 NNE 6 9 30.09 1019 7 11 0.05 1.27
2:59 am 02:59 Cloudy 50 10 45 7.2 83 83 NNE 9 15 30.10 1019 10 16 0.00 0.00
3:59 am 03:59 Cloudy 49 9.4 44 6.7 83 83 NE 7 11 30.11 1020 10 16 0.00 0.00
4:09 am 04:09 Cloudy 49 9.4 44 6.7 83 83 NE 6 9 30.12 1020 10 16 0.00 0.00
4:59 am 04:59 Cloudy 49 9.4 43 6.1 80 80 NE 7 11 30.14 1021 10 16 0.00 0.00
5:59 am 05:59 Cloudy 49 9.4 41 5 74 74 NE 6 9 30.16 1021 10 16 0.00 0.00
6:59 am 06:59 Mostly Cloudy 49 9.4 41 5 74 74 NE 6 9 30.20 1023 10 16 0.00 0.00
7:59 am 07:59 Mostly Cloudy 49 9.4 40 4.4 71 71 NE 8 13 30.22 1023 9 14 0.00 0.00
8:59 am 08:59 Mostly Cloudy 49 9.4 39 3.9 69 69 ENE 10 17 30.24 1024 10 16 0.00 0.00
9:59 am 09:59 Mostly Cloudy 52 11.1 38 3.3 59 59 NE 13 20 30.27 1025 10 16 0.00 0.00
10:59 am 10:59 Mostly Cloudy 50 10 34 1.1 54 54 ENE 10 17 30.26 1025 10 16 0.00 0.00
11:59 am 11:59 Mostly Cloudy 51 10.6 34 1.1 52 52 E 12 19 30.25 1025 10 16 0.00 0.00
12:59 pm 12:59 Cloudy 54 12.2 34 1.1 47 47 E 12 19 30.23 1024 10 16 0.00 0.00
1:59 pm 13:59 Cloudy 48 8.9 36 2.2 63 63 E 12 19 30.22 1023 10 16 0.00 0.00
2:59 pm 14:59 Cloudy 49 9.4 35 1.7 59 59 ESE 13 20 30.21 1023 10 16 0.00 0.00
3:59 pm 15:59 Mostly Cloudy 49 9.4 36 2.2 61 61 E 12 19 30.17 1022 10 16 0.00 0.00
4:59 pm 16:59 Cloudy 49 9.4 36 2.2 61 61 E 7 11 30.18 1022 10 16 0.00 0.00
5:59 pm 17:59 Cloudy 49 9.4 37 2.8 64 64 E 9 15 30.15 1021 10 16 0.00 0.00
6:59 pm 18:59 Cloudy 48 8.9 37 2.8 66 66 ESE 8 13 30.14 1021 10 16 0.00 0.00
7:34 pm 19:34 Cloudy 49 9.4 38 3.3 66 66 ESE 8 13 30.11 1020 10 16 0.00 0.00
7:59 pm 19:59 Cloudy 49 9.4 39 3.9 69 69 E 8 13 30.09 1019 10 16 0.00 0.00
8:59 pm 20:59 Cloudy 49 9.4 40 4.4 71 71 ESE 8 13 30.06 1018 10 16 0.00 0.00
9:59 pm 21:59 Cloudy 49 9.4 40 4.4 71 71 SE 7 11 30.02 1017 10 16 0.00 0.00
10:59 pm 22:59 Cloudy 50 10 41 5 71 71 VRB 6 9 29.98 1015 10 16 0.00 0.00
11:59 pm 23:59 Cloudy 50 10 42 5.6 74 74 VRB 3 6 29.93 1014 10 16 0.00 0.00

Powered by AerisWeather